2010 BK118

Japanese version
Home page
Updated on September 3, 2011

---------------------------------------------------------------------

* Profile

Discovery Date January 30, 2010
Magnitude
Discoverer Wide Field Infrared Survey Explorer (NASA)

* Pictures

* Orbital Elements

The following orbital elements are taken from MPO192606

Epoch 2011 Feb. 8.0 TT = JDT 2455600.5                  MPC
M 359.94665              (2000.0)            P               Q
n   0.00011954     Peri.  178.90335     +0.99839828     -0.03819266
a 408.1267346      Node   175.93513     -0.05535031     -0.50662527
e   0.9850332      Incl.  143.92601     -0.01171413     -0.86132001
P8245              H   10.2           G   0.15
From 140 observations at 2 oppositions, 2010-2011, mean residual 0".42.

* Magnitudes Graph

        H = 10.2  G = 0.15

---------------------------------------------------------------------

The orbital elements are published at the MPC Ephemerides and Orbital Elements.
The magnitudes graphs are made with Comet for Windows.

---------------------------------------------------------------------

Copyright(C) Seiichi Yoshida (comet@aerith.net). All rights reserved.